Tiempo cada hora Valladolid

Hoy, 20 Octubre, Martes

Tiempo Temperatura Precipitaciones Viento Presión Humedad
00:00 +17°C° 0 mm 3 mps 697 mmHg 59%
01:00 +15°C° 1.5 mm 4 mps 696 mmHg 65%
02:00 +14°C° 1.5 mm 4 mps 696 mmHg 72%
03:00 +14°C° 1.5 mm 5 mps 695 mmHg 78%
04:00 +14°C° 3.3 mm 4 mps 695 mmHg 80%
05:00 +14°C° 3.3 mm 4 mps 695 mmHg 81%
06:00 +14°C° 0 mm 3 mps 695 mmHg 80%
07:00 +15°C° 0.6 mm 4 mps 695 mmHg 80%
08:00 +15°C° 0.6 mm 4 mps 695 mmHg 79%
09:00 +15°C° 0.6 mm 5 mps 695 mmHg 79%
10:00 +15°C° 1.7 mm 5 mps 695 mmHg 80%
11:00 +14°C° 1.7 mm 6 mps 694 mmHg 82%
12:00 +14°C° 1.7 mm 7 mps 693 mmHg 83%
13:00 +15°C° 0.5 mm 9 mps 692 mmHg 76%
14:00 +17°C° 0.5 mm 11 mps 691 mmHg 69%
15:00 +18°C° 0.5 mm 13 mps 690 mmHg 61%
16:00 +18°C° 0 mm 14 mps 690 mmHg 62%
17:00 +17°C° 0 mm 15 mps 690 mmHg 63%
18:00 +16°C° 0 mm 16 mps 689 mmHg 63%
19:00 +15°C° 1.6 mm 13 mps 689 mmHg 71%
20:00 +15°C° 1.6 mm 9 mps 690 mmHg 79%
21:00 +14°C° 1.6 mm 5 mps 690 mmHg 87%
22:00 +14°C° 1.8 mm 6 mps 690 mmHg 86%
23:00 +14°C° 1.8 mm 6 mps 691 mmHg 85%

Mañana, 21 Octubre, Miércoles

Tiempo Temperatura Precipitaciones Viento Presión Humedad
00:00 +14°C° 1.8 mm 6 mps 691 mmHg 84%
01:00 +14°C° 0.2 mm 6 mps 691 mmHg 82%
02:00 +12°C° 0.2 mm 7 mps 692 mmHg 81%
03:00 +12°C° 0.2 mm 7 mps 692 mmHg 79%
04:00 +11°C° 0 mm 6 mps 693 mmHg 80%
05:00 +12°C° 0 mm 5 mps 693 mmHg 81%
06:00 +12°C° 0 mm 4 mps 693 mmHg 82%
07:00 +13°C° 0 mm 5 mps 694 mmHg 77%
08:00 +14°C° 0 mm 6 mps 694 mmHg 72%
09:00 +15°C° 0 mm 7 mps 695 mmHg 67%
10:00 +16°C° 0.1 mm 8 mps 695 mmHg 61%
11:00 +17°C° 0.1 mm 8 mps 695 mmHg 56%
12:00 +18°C° 0.1 mm 8 mps 696 mmHg 50%
13:00 +18°C° 0.1 mm 7 mps 696 mmHg 50%
14:00 +18°C° 0.1 mm 7 mps 696 mmHg 50%
15:00 +18°C° 0.1 mm 7 mps 696 mmHg 50%
16:00 +17°C° 0.1 mm 6 mps 696 mmHg 54%
17:00 +16°C° 0.1 mm 5 mps 696 mmHg 58%
18:00 +15°C° 0.1 mm 5 mps 696 mmHg 63%
19:00 +14°C° 0 mm 4 mps 697 mmHg 67%
20:00 +13°C° 0 mm 3 mps 697 mmHg 72%
21:00 +13°C° 0 mm 3 mps 697 mmHg 77%
22:00 +13°C° 0.4 mm 3 mps 697 mmHg 79%
23:00 +12°C° 0.4 mm 3 mps 697 mmHg 82%

Pasado mañana, 22 Octubre, Jueves

Tiempo Temperatura Precipitaciones Viento Presión Humedad
00:00 +12°C° 0.4 mm 3 mps 697 mmHg 85%
01:00 +13°C° 0.5 mm 2 mps 697 mmHg 87%
02:00 +12°C° 0.5 mm 2 mps 697 mmHg 89%
03:00 +12°C° 0.5 mm 1 mps 697 mmHg 91%
04:00 +12°C° 0.3 mm 1 mps 698 mmHg 91%
05:00 +11°C° 0.3 mm 1 mps 698 mmHg 92%
06:00 +11°C° 0.3 mm 1 mps 698 mmHg 93%
07:00 +12°C° 0.1 mm 1 mps 698 mmHg 87%
08:00 +13°C° 0.1 mm 1 mps 699 mmHg 82%
09:00 +14°C° 0.1 mm 1 mps 699 mmHg 77%
10:00 +15°C° 0.3 mm 2 mps 699 mmHg 69%
11:00 +17°C° 0.3 mm 3 mps 699 mmHg 62%
12:00 +18°C° 0.3 mm 3 mps 699 mmHg 55%
13:00 +18°C° 0.1 mm 3 mps 699 mmHg 53%
14:00 +19°C° 0.1 mm 3 mps 699 mmHg 51%
15:00 +19°C° 0.1 mm 3 mps 699 mmHg 49%
16:00 +17°C° 0.5 mm 3 mps 699 mmHg 57%
17:00 +16°C° 0.5 mm 2 mps 699 mmHg 65%
18:00 +15°C° 0.5 mm 2 mps 699 mmHg 73%
19:00 +14°C° 0.2 mm 2 mps 699 mmHg 75%
20:00 +14°C° 0.2 mm 1 mps 700 mmHg 77%
21:00 +13°C° 0.2 mm 1 mps 700 mmHg 79%
22:00 +13°C° 0 mm 1 mps 701 mmHg 79%
23:00 +13°C° 0 mm 1 mps 701 mmHg 80%

23 Octubre, Viernes

Tiempo Temperatura Precipitaciones Viento Presión Humedad
00:00 +13°C° 0 mm 2 mps 701 mmHg 80%
01:00 +12°C° 0 mm 1 mps 701 mmHg 82%
02:00 +12°C° 0 mm 1 mps 701 mmHg 83%
03:00 +12°C° 0 mm 1 mps 701 mmHg 85%
04:00 +11°C° 0 mm 1 mps 702 mmHg 86%
05:00 +11°C° 0 mm 1 mps 702 mmHg 87%
06:00 +10°C° 0 mm 1 mps 702 mmHg 88%
07:00 +10°C° 0 mm 2 mps 703 mmHg 82%
08:00 +11°C° 0 mm 3 mps 703 mmHg 77%
09:00 +12°C° 0 mm 4 mps 704 mmHg 71%
10:00 +13°C° 0 mm 4 mps 704 mmHg 67%
11:00 +14°C° 0 mm 4 mps 704 mmHg 63%
12:00 +15°C° 0 mm 4 mps 704 mmHg 59%
13:00 +15°C° 0 mm 4 mps 704 mmHg 57%
14:00 +15°C° 0 mm 4 mps 704 mmHg 55%
15:00 +17°C° 0 mm 3 mps 704 mmHg 54%
16:00 +16°C° 0 mm 3 mps 704 mmHg 58%
17:00 +15°C° 0 mm 2 mps 704 mmHg 62%
18:00 +14°C° 0 mm 1 mps 705 mmHg 67%
19:00 +13°C° 0 mm 1 mps 705 mmHg 69%
20:00 +12°C° 0 mm 1 mps 705 mmHg 72%
21:00 +12°C° 0 mm 1 mps 706 mmHg 74%
22:00 +12°C° 0 mm 1 mps 706 mmHg 77%
23:00 +11°C° 0 mm 1 mps 706 mmHg 79%

24 Octubre, Sábado

Tiempo Temperatura Precipitaciones Viento Presión Humedad
00:00 +11°C° 0 mm 1 mps 706 mmHg 81%
01:00 +10°C° 0 mm 1 mps 705 mmHg 83%
02:00 +10°C° 0 mm 1 mps 705 mmHg 85%
03:00 +10°C° 0 mm 1 mps 705 mmHg 88%
04:00 +9°C° 0 mm 1 mps 705 mmHg 88%
05:00 +9°C° 0 mm 1 mps 705 mmHg 89%
06:00 +9°C° 0 mm 1 mps 705 mmHg 89%
07:00 +10°C° 0 mm 1 mps 705 mmHg 85%
08:00 +10°C° 0 mm 2 mps 705 mmHg 80%
09:00 +12°C° 0 mm 2 mps 705 mmHg 75%
10:00 +14°C° 0 mm 2 mps 705 mmHg 68%
11:00 +14°C° 0 mm 3 mps 705 mmHg 60%
12:00 +15°C° 0 mm 4 mps 705 mmHg 53%
13:00 +17°C° 0 mm 4 mps 705 mmHg 51%
14:00 +17°C° 0 mm 4 mps 704 mmHg 50%
15:00 +18°C° 0 mm 4 mps 704 mmHg 48%
16:00 +15°C° 0 mm 4 mps 704 mmHg 54%
17:00 +14°C° 0 mm 3 mps 704 mmHg 60%
18:00 +13°C° 0 mm 3 mps 703 mmHg 67%
19:00 +12°C° 0 mm 3 mps 703 mmHg 71%
20:00 +12°C° 0 mm 3 mps 703 mmHg 75%
21:00 +11°C° 0 mm 3 mps 703 mmHg 79%
22:00 +11°C° 0 mm 3 mps 703 mmHg 82%
23:00 +10°C° 0 mm 3 mps 703 mmHg 84%

25 Octubre, Domingo

Tiempo Temperatura Precipitaciones Viento Presión Humedad
00:00 +10°C° 0 mm 3 mps 703 mmHg 87%
01:00 +9°C° 0 mm 3 mps 702 mmHg 89%
02:00 +9°C° 0 mm 3 mps 702 mmHg 91%
03:00 +7°C° 0 mm 4 mps 701 mmHg 93%
04:00 +7°C° 0 mm 4 mps 701 mmHg 93%
05:00 +7°C° 0 mm 4 mps 701 mmHg 93%
06:00 +7°C° 0 mm 4 mps 700 mmHg 93%
07:00 +8°C° 0 mm 5 mps 700 mmHg 87%
08:00 +9°C° 0 mm 7 mps 701 mmHg 81%
09:00 +10°C° 0 mm 8 mps 701 mmHg 75%
10:00 +10°C° 0.2 mm 8 mps 701 mmHg 75%
11:00 +11°C° 0.2 mm 9 mps 701 mmHg 75%
12:00 +11°C° 0.2 mm 9 mps 701 mmHg 75%
13:00 +11°C° 0.5 mm 8 mps 701 mmHg 69%
14:00 +11°C° 0.5 mm 7 mps 701 mmHg 64%
15:00 +10°C° 0.5 mm 6 mps 701 mmHg 59%
16:00 +9°C° 0.1 mm 6 mps 701 mmHg 62%
17:00 +9°C° 0.1 mm 5 mps 702 mmHg 65%
18:00 +8°C° 0.1 mm 5 mps 702 mmHg 67%
19:00 +7°C° 0 mm 5 mps 703 mmHg 70%
20:00 +6°C° 0 mm 4 mps 703 mmHg 72%
21:00 +6°C° 0 mm 4 mps 704 mmHg 75%
22:00 +5°C° 0 mm 4 mps 704 mmHg 77%
23:00 +5°C° 0 mm 4 mps 704 mmHg 80%

26 Octubre, Lunes

Tiempo Temperatura Precipitaciones Viento Presión Humedad
00:00 +4°C° 0 mm 3 mps 705 mmHg 83%
01:00 +4°C° 0 mm 3 mps 705 mmHg 84%
02:00 +4°C° 0 mm 3 mps 705 mmHg 85%
03:00 +3°C° 0 mm 3 mps 705 mmHg 86%
04:00 +3°C° 0 mm 3 mps 705 mmHg 88%
05:00 +3°C° 0 mm 3 mps 705 mmHg 89%
06:00 +3°C° 0 mm 4 mps 706 mmHg 90%
07:00 +4°C° 0 mm 4 mps 706 mmHg 85%
08:00 +5°C° 0 mm 4 mps 707 mmHg 80%
09:00 +6°C° 0 mm 4 mps 707 mmHg 75%
10:00 +8°C° 0 mm 4 mps 707 mmHg 67%
11:00 +10°C° 0 mm 4 mps 707 mmHg 60%
12:00 +10°C° 0 mm 5 mps 707 mmHg 52%
13:00 +10°C° 0 mm 5 mps 707 mmHg 51%
14:00 +12°C° 0 mm 4 mps 707 mmHg 51%
15:00 +12°C° 0 mm 4 mps 707 mmHg 50%
16:00 +11°C° 0 mm 4 mps 707 mmHg 54%
17:00 +10°C° 0 mm 3 mps 707 mmHg 59%
18:00 +9°C° 0 mm 2 mps 707 mmHg 63%
19:00 +9°C° 0 mm 2 mps 707 mmHg 67%
20:00 +8°C° 0 mm 2 mps 708 mmHg 71%
21:00 +8°C° 0 mm 2 mps 708 mmHg 75%
22:00 +8°C° 0 mm 2 mps 708 mmHg 78%
23:00 +7°C° 0 mm 2 mps 708 mmHg 80%
Mostrar más

Necesitamos Su Consentimiento

Meteoprog y nuestros Proveedores de Servicios pueden almacenar y acceder a sus datos personales como cookies, identificadores de dispositivo u otras tecnologías similares de su dispositivo y procesar dichos datos para personalizar contenido y anuncios, además de ofrecer funciones de redes sociales y analizar el tráfico.

  • Almacenar y/o acceder a información en su dispositivo

    Se puede almacenar o acceder a cookies, identificadores de dispositivo u otra información de su dispositivo para los fines anteriormente indicados.

  • Anuncios y contenido personalizados, medición de anuncios y contenido, percepciones del público, y desarrollo de productos

    Los anuncios y el contenido pueden personalizarse en base a su perfil. Se pueden añadir más datos para personalizar mejor los anuncios y contenidos. Se puede medir el rendimiento de los anuncios y contenidos. Se puede obtener la percepción sobre el público que ha visto los anuncios y contenidos. Dichos datos pueden usarse para desarrollar o mejorar la experiencia del usuario, sistemas y software.

Al hacer clic en ‘Estoy De Acuerdo’ usted permitirá el uso de las cookies, identificadores de dispositivo, balizas web u otras tecnologías similares indicadas. Su configuración puede cambiarse desde el navegador de su dispositivo.

Para ciertos fines, los intereses legítimos pueden ser considerados por encima del consentimiento. Puede leer más sobre ello en nuestra Política de Privacidad y Cookies.